Location: Unspecified
(0.0000°N, 0.0000°E)
Time: 06:08:41
(UTC-04:00)

Envisat - Visible Passes

Search period start: 18 September 2021 00:00
Search period end: 28 September 2021 00:00
Orbit: 764 x 766 km, 98.2° (Epoch: 17 September)

Date Brightness Start Highest point End Pass type
(mag) Time Alt. Az. Time Alt. Az. Time Alt. Az.
18 Sep 3.3 01:11:47 10° N 01:16:35 45° WNW 01:21:25 10° SSW visible
19 Sep 3.5 00:34:51 10° NNE 00:39:51 62° ESE 00:44:52 10° S visible
19 Sep 5.4 23:59:17 10° NE 00:03:07 22° ESE 00:06:57 10° SSE visible
21 Sep 3.0 01:00:07 10° N 01:05:07 63° WNW 01:10:08 10° SSW visible
22 Sep 4.1 00:23:33 10° NNE 00:28:23 45° ESE 00:33:12 10° S visible
22 Sep 5.8 23:48:39 10° ENE 23:51:39 16° ESE 23:54:39 10° SE visible
23 Sep 3.8 01:26:01 10° NNW 01:30:23 30° WNW 01:34:46 10° SW visible
24 Sep 2.9 00:48:34 10° N 00:53:38 86° WNW 00:58:44 10° SSW visible
25 Sep 4.7 00:12:24 10° NE 00:16:54 33° ESE 00:21:24 10° SSE visible
25 Sep 6.1 23:38:44 10° E 23:40:11 11° ESE 23:41:39 10° ESE visible
26 Sep 3.4 01:14:11 10° N 01:18:54 41° WNW 01:23:39 10° SSW visible
27 Sep 3.3 00:37:07 10° NNE 00:42:09 69° ESE 00:47:12 10° S visible
